User: anonymous   Login
Location: Writing-on-Stone Provincial Park
(49.0825°N, 111.6163°W)
Time: 17:06:50
(UTC-07:00)
Language:

BREEZE-M DEB (TANK) - Orbit

View from above orbital plane
View from above orbital plane
View from above satellite
View from above satellite

Ground track
Ground track

The orbit data is extracted from the following two-line orbital elements,

1 29649U 06056B   16035.70824950  .00001254  00000-0  25556-3 0  9995
2 29649  49.4717 238.1489 5387996 210.4383 102.6488  4.97775802162891
Epoch (UTC): 04 February 2016 16:59:52
Eccentricity: 0.5387996
inclination: 49.4717°
perigee height: 304 km
apogee height: 15918 km
right ascension of ascending node: 238.1489°
argument of perigee: 210.4383°
revolutions per day: 4.97775802
mean anomaly at epoch: 102.6488°
orbit number at epoch: 16289

The dashed part of the orbit path shows where the satellite is in the earth's shadow,  

DLR